Page 1
                  Kinetic Physical Therapy's Bull Run 5k

                               JUNE 18, 2016
Place No.   Name                   Age S Time    Pace     
===== ===== ====================== === = ======= ===== 
    1  1387 Chris Haughey           45 M   21:30  6:56 
    2  1384 Morgan Chmielenski      14 F   22:10  7:09 
    3  1388 Andrew Ingino           46 M   22:51  7:22 
    4  1394 Jessica Miller          19 F   23:13  7:29 
    5  1911 Justin Rhines              M   23:46  7:39 
    6  1912 Chris Trunk             61 M   23:57  7:43 
    7  1399 Martin Unverdorben      59 M   24:50  8:00 
    8  1397 Lavinia Unverdorben     19 F   25:20  8:10 
    9  1393 Bruce Miller            57 M   25:22  8:10 
   10  1913 Bull                           25:40  8:16 
   11  1396 Dave Timmann            63 M   26:08  8:25 
   12  1906 Heather Piper           18 F   26:16  8:28 
   13  1910 Ashlyn Kearney          18 F   27:21  8:49 
   14  1395 Mark Tacelosky          42 M   27:22  8:49 
   15  1908 Jake Kearney            14 M   29:08  9:23 
   16  1392 Angela Mastriana        22 F   30:30  9:50 
   17   493 Megan Valeski           27 F   30:31  9:50 
   18  1909 Susan Kearney           50 F   30:57  9:58 
   19  1907 Brian Piper             51 M   31:23 10:07 
   20  1389 Kristen Kauffman        22 F   32:26 10:27 
   21  1390 Rachel Kauffman         22 F   32:27 10:27 
   22  1398 Leander Unverdorben     19 M   35:06 11:18 
   23  1400 Susanne Unverdorben     51 F   35:07 11:19 

Logo_footer   
     © 2015 CCRS

Follow us: